Weather History for Burnet, TX

Change the Weather History Date:

Thursday, February 9, 2012

  Actual Average Record
Temperature  
Mean Temperature 48 °F -  
Max Temperature 59 °F 58 °F 84 °F (1999)
Min Temperature 37 °F 39 °F 15 °F (2011)
Degree Days  
Heating Degree Days 17    
Moisture  
Dew Point 38 °F    
Average Humidity 70    
Maximum Humidity 89    
Minimum Humidity 46    
Precipitation  
Precipitation 0.00 in - - ()
Sea Level Pressure  
Sea Level Pressure 30.23 in    
Wind  
Wind Speed 4 mph (SSE)    
Max Wind Speed 10 mph    
Max Gust Speed -    
Visibility 7 miles    
Events      
Averages and records for this station are not official NWS values.
T = Trace of Precipitation, MM = Missing Value Source: NWS Daily Summary

Daily Weather History Graph

Daily Weather History Graph

Search for Another Location

Airport:

Trip Planner

Search our weather history database for the weather conditions in past years. The results will help you decide how hot, cold, wet, or windy it might be!

Date:

Astronomy

Feb. 09, 2012 Rise Set
Actual Time 7:19 AM CST 6:15 PM CST
Civil Twilight 6:54 AM CST 6:40 PM CST
Nautical Twilight 6:25 AM CST 7:09 PM CST
Astronomical Twilight 5:57 AM CST 7:37 PM CST
Moon 8:30 PM CST (2/9) 8:08 AM CST (2/9)
Length of Visible Light 11h 46m
Length of Day
10h 56m
Waning Gibbous, 96% of the Moon is Illuminated
Feb 9
Waning Gibbous
Feb 14
Last Quarter
Feb 21
New
Feb 29
First Quarter
Mar 8
Full

Hourly Weather History & Observations

Time (CST) Temp. Windchill Dew Point Humidity Pressure Visibility Wind Dir Wind Speed Gust Speed Precip Events Conditions
12:53 AM 39.9 °F 36.7 °F 35.1 °F 83% 30.35 in 6.0 mi NNE 4.6 mph - N/A   Haze
1:53 AM 39.9 °F - 35.1 °F 83% 30.34 in 5.0 mi Calm Calm - N/A   Haze
2:53 AM 39.0 °F - 35.1 °F 86% 30.32 in 5.0 mi Calm Calm - N/A   Clear
3:53 AM 37.9 °F - 34.0 °F 86% 30.31 in 4.0 mi Calm Calm - N/A   Clear
4:53 AM 37.0 °F - 34.0 °F 89% 30.30 in 4.0 mi Calm Calm - N/A   Clear
5:53 AM 37.0 °F - 34.0 °F 89% 30.31 in 4.0 mi Calm Calm - N/A   Overcast
6:53 AM 37.9 °F - 35.1 °F 89% 30.32 in 4.0 mi Calm Calm - N/A   Mostly Cloudy
7:38 AM 37.4 °F 34.9 °F 33.8 °F 87% 30.30 in 2.5 mi ENE 3.5 mph - N/A   Clear
7:53 AM 37.9 °F - 34.0 °F 86% 30.31 in 3.0 mi Calm Calm - N/A   Clear
8:53 AM 39.9 °F 35.8 °F 36.0 °F 86% 30.32 in 4.0 mi ESE 5.8 mph - N/A   Clear
9:53 AM 45.0 °F 41.8 °F 37.0 °F 74% 30.32 in 6.0 mi Variable 5.8 mph - N/A   Haze
10:53 AM 48.0 °F - 37.9 °F 68% 30.30 in 7.0 mi Calm Calm - N/A   Clear
11:53 AM 53.1 °F - 39.0 °F 59% 30.27 in 9.0 mi South 10.4 mph - N/A   Clear
12:53 PM 55.0 °F - 37.9 °F 53% 30.24 in 9.0 mi SSE 8.1 mph - N/A   Clear
1:53 PM 55.9 °F - 37.9 °F 51% 30.19 in 9.0 mi SSE 4.6 mph - N/A   Clear
2:53 PM 57.0 °F - 37.9 °F 49% 30.15 in 10.0 mi SE 10.4 mph - N/A   Partly Cloudy
3:53 PM 59.0 °F - 37.9 °F 46% 30.13 in 9.0 mi SSE 8.1 mph - N/A   Scattered Clouds
4:53 PM 55.9 °F - 37.9 °F 51% 30.12 in 10.0 mi SSE 9.2 mph - N/A   Clear
5:53 PM 55.0 °F - 39.0 °F 55% 30.12 in 10.0 mi SSE 5.8 mph - N/A   Overcast
6:53 PM 53.1 °F - 39.0 °F 59% 30.12 in 10.0 mi SSE 5.8 mph - N/A   Overcast
7:53 PM 52.0 °F - 39.9 °F 63% 30.12 in 10.0 mi SSE 6.9 mph - N/A   Overcast
8:53 PM 52.0 °F - 39.9 °F 63% 30.14 in 10.0 mi South 5.8 mph - N/A   Overcast
9:53 PM 52.0 °F - 41.0 °F 66% 30.14 in 9.0 mi South 6.9 mph - N/A   Overcast
10:53 PM 51.1 °F - 41.0 °F 68% 30.15 in 8.0 mi South 5.8 mph - N/A   Overcast
11:22 PM 51.8 °F - 41.0 °F 67% 30.16 in 9.0 mi South 4.6 mph - N/A   Overcast
11:53 PM 51.1 °F - 42.1 °F 71% 30.16 in 7.0 mi Calm Calm - N/A   Overcast